[[{"header":{"parameterUnit":"m.s-1","parameterCategory":1,"la1":30.2991,"la2":30.254,"lo1":-89.0895,"lo2":-89.0444,"dy":0.0017,"dx":0.0017,"nx":28,"ny":28,"refTime":"2023-10-26T09:00:00:Z","depth":0,"parameterNumber":2,"parameterNumberName":"U-component_of_WINDS"},"data":[0,0,0,0,0,0,0,0,0,0,0,0,0,0,0,0,0,0,0,0,0,0,0,0,0,0,0,0,0,0,0,0,0,0,0,0,0,0,0,0,0,0,0,0,0,0,0,0,0,0,0,0,0,0,0,0,0,0,-5.1832,-5.1833,0,-5.1918,-5.1919,-5.1919,-5.1782,-5.1778,-5.1773,-5.1768,-5.1858,-5.1865,-5.1872,0,0,0,0,0,0,0,0,0,0,0,0,0,-5.1551,-5.1557,-5.1832,-5.1833,-5.1834,-5.1917,-5.1919,-5.192,-5.1783,-5.1777,-5.1772,-5.1766,-5.1856,-5.1864,-5.1872,0,0,0,0,0,0,0,0,0,0,0,0,0,-5.1659,-5.1559,-5.1831,-5.1776,-5.1771,-5.1917,-5.1919,-5.192,-5.1784,-5.1777,-5.177,-5.1763,-5.1853,-5.1863,-5.1873,-5.2078,0,0,-5.1905,-5.1909,0,0,0,0,0,0,0,0,-5.1653,-5.1669,-5.1783,-5.178,-5.1775,-5.1832,-5.1853,-5.1973,-5.1786,-5.178,-5.1768,-5.176,-5.1855,-5.1865,-5.1897,-5.2083,-5.2086,-5.1906,-5.1912,-5.1916,-5.1919,0,0,0,0,0,0,0,-5.1646,-5.1665,-5.1866,-5.1785,-5.178,-5.1747,-5.1754,-5.1875,-5.1856,-5.178,-5.177,-5.1782,-5.1852,-5.1887,-5.1898,-5.2088,-5.1905,-5.1914,-5.1921,-5.1925,-5.2446,-5.2454,0,0,0,0,0,0,-5.1645,-5.166,-5.1863,-5.1868,-5.1695,-5.1758,-5.1766,-5.1821,-5.1855,-5.1853,-5.1788,-5.1775,-5.1873,-5.1886,-5.1901,-5.2142,-5.1916,-5.1926,-5.1931,-5.2439,-5.2448,-5.2456,0,0,0,0,0,0,-5.1639,-5.1664,-5.1859,-5.1761,-5.1784,-5.177,-5.1833,-5.1826,-5.1861,-5.1861,-5.1857,-5.1827,-5.1868,-5.1886,-5.2035,-5.2144,-5.193,-5.1939,-5.243,-5.2442,-5.2452,-5.2628,0,0,0,0,0,0,-5.1632,-5.1663,-5.174,-5.1764,-5.1789,-5.1992,-5.184,-5.1833,-5.1879,-5.1863,-5.1896,-5.1895,-5.1864,-5.2021,-5.2045,-5.2154,-5.1947,-5.242,-5.2435,-5.2449,-5.2613,-5.2644,-5.2672,0,0,0,0,0,-5.1622,-5.1787,-5.1745,-5.177,-5.1885,-5.1999,-5.2013,-5.1973,-5.1888,-5.1966,-5.1966,-5.1894,-5.2128,-5.2037,-5.2064,-5.2177,-5.2413,-5.2431,-5.2448,-5.2599,-5.2638,-5.2671,0,0,0,0,0,0,-5.1776,-5.1789,-5.1742,-5.1919,-5.1959,-5.1975,-5.2072,-5.2016,-5.2081,-5.2064,-5.2012,-5.2021,-5.2181,-5.2194,-5.2092,-5.2377,-5.2256,-5.228,-5.2363,-5.2399,-5.2428,-5.2421,-5.1956,0,0,0,0,0,-5.1831,-5.1921,-5.1927,-5.2083,-5.2105,-5.2086,-5.2134,-5.21,-5.2139,-5.2155,-5.2166,-5.2207,-5.229,-5.2345,-5.2422,-5.2614,-5.262,-5.2705,-5.2735,-5.2759,-5.278,-5.2883,-5.2921,-5.2514,-5.2514,-5.2513,0,0,-5.1944,-5.1962,-5.2022,-5.2114,-5.2141,-5.2236,-5.2101,-5.2207,-5.2278,-5.2171,-5.2312,-5.2322,-5.2365,-5.2537,-5.2613,-5.2553,-5.2894,-5.2781,-5.2801,-5.2808,-5.2905,-5.2943,-5.2978,-5.2526,-5.2523,-5.2522,0,0,-5.2199,-5.2222,-5.2353,-5.2383,-5.2426,-5.2412,-5.2444,-5.247,-5.2472,-5.2612,-5.2535,-5.2619,-5.2762,-5.2796,-5.2832,-5.3102,-5.3039,-5.3129,-5.3282,-5.3383,-5.3415,-5.3444,-5.3539,-5.3575,-5.315,-5.315,-5.315,0,-5.2334,-5.2474,-5.2428,-5.2541,-5.2584,-5.2492,-5.2626,-5.2657,-5.2723,-5.2755,-5.2686,-5.2865,-5.2888,-5.3066,-5.3132,-5.3165,-5.32,-5.3124,-5.3414,-5.3442,-5.3468,-5.3559,-5.3595,-5.3161,-5.3159,-5.3158,-5.3157,0,-5.2638,-5.2737,-5.2839,-5.2904,-5.2958,-5.3081,-5.3055,-5.3116,-5.3078,-5.3072,-5.3217,-5.3241,-5.3321,-5.3361,-5.3325,-5.3535,-5.3496,-5.3423,-5.3299,-5.3518,-5.3602,-5.3637,-5.3176,-5.3172,-5.3169,-5.3166,0,0,-5.299,-5.303,-5.3068,-5.3096,-5.3137,-5.3213,-5.3332,-5.341,-5.3463,-5.3512,-5.3611,-5.3735,-5.3667,-5.3708,-5.3676,-5.3765,-5.3977,-5.368,-5.368,-5.3733,-5.421,-5.4264,-5.4305,-5.3936,-5.3942,-5.3948,-5.4206,0,-5.3243,-5.3447,-5.3411,-5.361,-5.3701,-5.3616,-5.372,-5.3757,-5.3756,-5.3833,-5.3831,-5.392,-5.3823,-5.3848,-5.3932,-5.3933,-5.4072,-5.3914,-5.4027,-5.4032,-5.4018,-5.435,-5.4407,-5.465,-5.4239,-5.4244,-5.4249,0,-5.3565,-5.3626,-5.3834,-5.3861,-5.3898,-5.3992,-5.406,-5.4135,-5.4176,-5.4168,-5.4216,-5.4167,-5.4286,-5.4164,-5.4328,-5.4221,-5.4266,-5.4274,-5.4282,-5.429,-5.4152,-5.4366,-5.4726,-5.4762,-5.43,-5.4296,-5.4292,0,-5.38,-5.3934,-5.4076,-5.4103,-5.4139,-5.4207,-5.4225,-5.4259,-5.4308,-5.4369,-5.44,-5.4474,-5.4515,-5.4574,-5.4547,-5.446,-5.4716,-5.4591,-5.4713,-5.4714,-5.477,-5.4766,-5.5142,-5.4801,-5.4801,-5.48,-5.4799,0,-5.4085,-5.4216,-5.4182,-5.4269,-5.4413,-5.4371,-5.4515,-5.4523,-5.4554,-5.4642,-5.4575,-5.4659,-5.4618,-5.47,-5.468,-5.4819,-5.4838,-5.4836,-5.4829,-5.4841,-5.4841,-5.4868,-5.485,-5.481,-5.4807,-5.4806,-5.4804,0,-5.4371,-5.4353,-5.4502,-5.4524,-5.4533,-5.4638,-5.4657,-5.4739,-5.4733,-5.4845,-5.4869,-5.486,-5.4952,-5.4932,-5.5034,-5.502,-5.5195,-5.5167,-5.5181,-5.5174,-5.5297,-5.5285,-5.5702,-5.5754,-5.5381,-5.5385,-5.5388,0,-5.4553,-5.4651,-5.4684,-5.4738,-5.4761,-5.4849,-5.4899,-5.4862,-5.4917,-5.4972,-5.5048,-5.5135,-5.5202,-5.5354,-5.5357,-5.5435,-5.5408,-5.5549,-5.5419,-5.5428,-5.5409,-5.5402,-5.5412,-5.5574,-5.5578,-5.5581,-5.5584,0,-5.4878,-5.4865,-5.4939,-5.5012,-5.5073,-5.5129,-5.5177,-5.5226,-5.5193,-5.5259,-5.5352,-5.5405,-5.5509,-5.5596,-5.5668,-5.5687,-5.5631,-5.5625,-5.5657,-5.567,-5.5673,-5.5672,-5.525,-5.5615,-5.5612,-5.561,-5.5608,-5.5607,-5.5117,-5.52,-5.5237,-5.5322,-5.5355,-5.5403,-5.5481,-5.5485,-5.5562,-5.5644,-5.5618,-5.5725,-5.5765,-5.5856,-5.5885,-5.5968,-5.5915,-5.5962,-5.5974,-5.5986,-5.6,-5.5662,-5.5982,-5.5981,-5.598,-5.5979,-5.5978,0,-5.5437,-5.5457,-5.5536,-5.5606,-5.5674,-5.5616,-5.5667,-5.5728,-5.5823,-5.5865,-5.5932,-5.6041,-5.6125,-5.6136,-5.6216,-5.6281,-5.6257,-5.6303,-5.6297,-5.6302,-5.6043,-5.6007,-5.6321,-5.6321,-5.6321,-5.6321,-5.6321,-5.6321,-5.5611,-5.5749,-5.5741,-5.5896,-5.5915,-5.6019,-5.6053,-5.6097,-5.613,-5.6254,-5.6324,-5.633,-5.636,-5.6442,-5.6517,-5.6518,-5.655,-5.6606,-5.6597,-5.6355,-5.6321,-5.6288,-5.6253,-5.6614,-5.6614,-5.6849,-5.6851,-5.6852]},{"header":{"parameterUnit":"m.s-1","parameterCategory":1,"la1":30.2991,"la2":30.254,"lo1":-89.0895,"lo2":-89.0444,"dy":0.0017,"dx":0.0017,"nx":28,"ny":28,"refTime":"2023-10-26T09:00:00:Z","depth":0,"parameterNumber":3,"parameterNumberName":"V-component_of_WINDS"},"data":[0,0,0,0,0,0,0,0,0,0,0,0,0,0,0,0,0,0,0,0,0,0,0,0,0,0,0,0,0,0,0,0,0,0,0,0,0,0,0,0,0,0,0,0,0,0,0,0,0,0,0,0,0,0,0,0,0,0,-0.3837,-0.3837,0,-0.3784,-0.3783,-0.3783,-0.381,-0.3812,-0.3813,-0.3815,-0.3754,-0.3751,-0.3748,0,0,0,0,0,0,0,0,0,0,0,0,0,-0.3956,-0.3954,-0.3837,-0.3837,-0.3836,-0.3784,-0.3783,-0.3782,-0.381,-0.3812,-0.3814,-0.3815,-0.3755,-0.3752,-0.3748,0,0,0,0,0,0,0,0,0,0,0,0,0,-0.3904,-0.3953,-0.3837,-0.3844,-0.3844,-0.3784,-0.3783,-0.3782,-0.381,-0.3812,-0.3814,-0.3816,-0.3756,-0.3752,-0.3748,-0.3677,0,0,-0.3734,-0.3732,0,0,0,0,0,0,0,0,-0.3907,-0.3899,-0.3843,-0.3843,-0.3843,-0.3806,-0.3803,-0.3747,-0.3809,-0.3822,-0.3815,-0.3817,-0.3769,-0.3764,-0.3749,-0.3674,-0.3671,-0.3734,-0.3731,-0.3729,-0.3728,0,0,0,0,0,0,0,-0.391,-0.3902,-0.3816,-0.3843,-0.3842,-0.3847,-0.3842,-0.3792,-0.3784,-0.3822,-0.3823,-0.3817,-0.377,-0.3753,-0.3748,-0.3671,-0.3734,-0.373,-0.3727,-0.3725,-0.3531,-0.3528,0,0,0,0,0,0,-0.3915,-0.3905,-0.3818,-0.3814,-0.3881,-0.3843,-0.3837,-0.3816,-0.3785,-0.3782,-0.3815,-0.3819,-0.376,-0.3753,-0.3746,-0.3657,-0.3729,-0.3725,-0.3722,-0.3533,-0.353,-0.3527,0,0,0,0,0,0,-0.3917,-0.3907,-0.382,-0.386,-0.3849,-0.3839,-0.3814,-0.3814,-0.3797,-0.378,-0.3778,-0.38,-0.3761,-0.3752,-0.3693,-0.3656,-0.3723,-0.3719,-0.3536,-0.3532,-0.3529,-0.3482,0,0,0,0,0,0,-0.392,-0.3907,-0.3882,-0.3859,-0.3847,-0.377,-0.3812,-0.3811,-0.379,-0.3794,-0.3766,-0.3763,-0.3762,-0.37,-0.3689,-0.3651,-0.3715,-0.3539,-0.3534,-0.353,-0.3487,-0.3477,-0.3469,0,0,0,0,0,-0.3924,-0.3871,-0.3881,-0.387,-0.3816,-0.3768,-0.3761,-0.3762,-0.3787,-0.376,-0.3749,-0.3764,-0.3663,-0.3694,-0.3681,-0.3642,-0.3542,-0.3536,-0.353,-0.3491,-0.3479,-0.3469,0,0,0,0,0,0,-0.3887,-0.3868,-0.3878,-0.3816,-0.3794,-0.3773,-0.3739,-0.3751,-0.3719,-0.3723,-0.3725,-0.3719,-0.3657,-0.3644,-0.3679,-0.357,-0.3605,-0.3597,-0.358,-0.3568,-0.356,-0.3562,-0.3712,0,0,0,0,0,-0.3872,-0.3837,-0.3822,-0.3768,-0.3756,-0.3749,-0.3729,-0.3732,-0.3708,-0.3698,-0.3683,-0.3657,-0.3619,-0.3594,-0.3558,-0.3487,-0.3478,-0.3453,-0.3444,-0.3437,-0.3428,-0.3385,-0.3372,-0.3509,-0.3509,-0.3509,0,0,-0.3839,-0.3825,-0.3802,-0.376,-0.3743,-0.3703,-0.3741,-0.3699,-0.3669,-0.3691,-0.3634,-0.3622,-0.3593,-0.3526,-0.3496,-0.3514,-0.3389,-0.343,-0.3424,-0.3419,-0.3378,-0.3365,-0.3353,-0.3505,-0.3506,-0.3506,0,0,-0.376,-0.3747,-0.3699,-0.3681,-0.3656,-0.3651,-0.364,-0.3617,-0.361,-0.3554,-0.3568,-0.3532,-0.3468,-0.3445,-0.3425,-0.3336,-0.3347,-0.3325,-0.3276,-0.3234,-0.3223,-0.3214,-0.3177,-0.3165,-0.3317,-0.3317,-0.3317,0,-0.3721,-0.3666,-0.3672,-0.3628,-0.3607,-0.3628,-0.3577,-0.3559,-0.3522,-0.3506,-0.3527,-0.3445,-0.3427,-0.3354,-0.3332,-0.3317,-0.33,-0.3326,-0.3225,-0.3215,-0.3206,-0.3171,-0.3158,-0.3314,-0.3314,-0.3315,-0.3315,0,-0.3618,-0.3579,-0.3543,-0.3508,-0.3483,-0.3436,-0.3433,-0.3407,-0.3413,-0.3406,-0.3345,-0.3325,-0.3284,-0.3268,-0.3273,-0.3194,-0.3205,-0.3226,-0.3261,-0.319,-0.3157,-0.3144,-0.331,-0.3311,-0.3312,-0.3312,0,0,-0.351,-0.348,-0.3466,-0.3449,-0.3422,-0.3391,-0.3344,-0.3305,-0.3281,-0.3255,-0.3212,-0.3157,-0.3175,-0.3153,-0.3155,-0.3119,-0.3044,-0.3143,-0.3142,-0.3121,-0.295,-0.2932,-0.2917,-0.3053,-0.3051,-0.3049,-0.2951,0,-0.3425,-0.3344,-0.3349,-0.3271,-0.3233,-0.3252,-0.321,-0.3187,-0.3179,-0.3143,-0.3134,-0.3093,-0.3122,-0.3108,-0.3074,-0.306,-0.3009,-0.3068,-0.3009,-0.3007,-0.3011,-0.29,-0.2881,-0.279,-0.2939,-0.2937,-0.2935,0,-0.3315,-0.3285,-0.3205,-0.3181,-0.3165,-0.3128,-0.3091,-0.3058,-0.3032,-0.3028,-0.3003,-0.3011,-0.2959,-0.2999,-0.2926,-0.2966,-0.2943,-0.2932,-0.2929,-0.292,-0.2963,-0.2883,-0.2761,-0.2746,-0.2916,-0.2918,-0.2919,0,-0.3238,-0.318,-0.3123,-0.3108,-0.3081,-0.3053,-0.304,-0.3016,-0.2992,-0.2959,-0.2943,-0.2905,-0.2883,-0.2852,-0.2848,-0.2878,-0.2772,-0.2813,-0.2764,-0.2764,-0.2737,-0.2738,-0.2605,-0.273,-0.273,-0.273,-0.2731,0,-0.314,-0.3088,-0.3088,-0.3052,-0.2994,-0.2999,-0.2941,-0.293,-0.2908,-0.2868,-0.2883,-0.2845,-0.2845,-0.2805,-0.2802,-0.2739,-0.273,-0.2722,-0.2721,-0.2718,-0.2718,-0.2699,-0.2704,-0.2727,-0.2728,-0.2728,-0.2729,0,-0.3043,-0.3042,-0.298,-0.2959,-0.2953,-0.291,-0.2891,-0.2855,-0.285,-0.2799,-0.2787,-0.2776,-0.273,-0.2724,-0.267,-0.2668,-0.2591,-0.2599,-0.26,-0.2599,-0.2548,-0.2551,-0.2394,-0.2372,-0.2516,-0.2515,-0.2514,0,-0.2978,-0.2939,-0.2915,-0.289,-0.2875,-0.2836,-0.2811,-0.2815,-0.2788,-0.2754,-0.2721,-0.2677,-0.2641,-0.2566,-0.2551,-0.2509,-0.2513,-0.2461,-0.2506,-0.2503,-0.2506,-0.2506,-0.25,-0.245,-0.2449,-0.2447,-0.2446,0,-0.2861,-0.2862,-0.2828,-0.2791,-0.2762,-0.2734,-0.2707,-0.2685,-0.2685,-0.2653,-0.2607,-0.2579,-0.2524,-0.2478,-0.2436,-0.242,-0.243,-0.2433,-0.2418,-0.2412,-0.2412,-0.2406,-0.257,-0.2435,-0.2436,-0.2437,-0.2438,-0.2438,-0.2775,-0.274,-0.2716,-0.2676,-0.2657,-0.2631,-0.2596,-0.2586,-0.2548,-0.2504,-0.2508,-0.2456,-0.2428,-0.2373,-0.2353,-0.231,-0.2327,-0.2307,-0.2301,-0.2294,-0.2287,-0.2424,-0.2303,-0.2303,-0.2304,-0.2304,-0.2304,0,-0.2654,-0.2641,-0.2604,-0.2566,-0.2534,-0.2552,-0.2522,-0.2493,-0.2447,-0.2421,-0.2386,-0.2331,-0.2286,-0.2268,-0.2224,-0.2192,-0.2196,-0.218,-0.2179,-0.2174,-0.2277,-0.2292,-0.2177,-0.2177,-0.2177,-0.2177,-0.2177,-0.2177,-0.2587,-0.2527,-0.2525,-0.2455,-0.2441,-0.2391,-0.2372,-0.2347,-0.2326,-0.2264,-0.2228,-0.2218,-0.2194,-0.2147,-0.2106,-0.2101,-0.2082,-0.2062,-0.2059,-0.2155,-0.2167,-0.218,-0.2193,-0.2059,-0.2059,-0.1959,-0.1958,-0.1958]}]]